Погода в Петропавловке

Россия / Астраханская область     46°50′13″N   47°46′36″E
темп.,
°C
ветер,
м/с
пор.,
м/с
влажн.,
%
обл.,
%
осадки,
мм/ч
давл.,
гПа
погр.,
м
17 мая, пн
пн1701:00+21в511310 0.0 1011194
04:00+20в510480 0.0 1011146
07:00+23вюв715390 0.0 1011397
10:00+31юв1013160 0.0 10122043
13:00+33юв1011120 0.0 10112852
16:00+33юв910111 0.0 10102829
19:00+30вюв710140 0.0 1009739
22:00+24вюв49261 0.0 1010149
18 мая, вт
вт1801:00+21в511360 0.0 1008166
04:00+23в818322 0.0 1007382
07:00+24вюв818330 0.0 1008627
10:00+31юв1016170 0.0 10081571
13:00+33юв11161334 0.0 10082547
16:00+32юв101412100 0.0 10082265
19:00+29юв691991 0.0 1008777
22:00+24ю342834 0.0 100942
19 мая, ср
ср1901:00+20зюз335591 0.0 100828
04:00+20ссз3466100 0.0 100755
07:00+22зсз2354100 0.0 1006122
10:00+28ююз1124100 0.0 1005707
13:00+30ююз56267 0.0 10051789
16:00+31зюз772626 0.0 10063208
19:00+24з131449100 0.0 1009724
22:00+20з91457100 0.4 1013752
20 мая, чт
чт2001:00+18зсз71353100 0.0 1014735
04:00+17зсз6971100 0.4 1016607
07:00+15зсз6881100 1.7 1016412
10:00+17сз566792 1.7 1017685
13:00+20ссз675277 0.0 10171002
16:00+23ссз664010 0.0 10161234
19:00+23ссз56415 0.0 1016823
22:00+20сз4652100 0.0 1017102
21 мая, пт
пт2101:00+19ссз5105652 0.0 1016225
04:00+17ссз410660 0.0 1016224
07:00+20ссз510580 0.0 1017349
10:00+26с55380 0.0 1017900
13:00+30св222624 0.0 10162325
16:00+31ссв322364 0.0 10162861
19:00+30ссв44240 0.0 10161629
22:00+25св49270 0.0 1016159